Terre Haute, IN

4:07 PM EST on December 11, 2019 (GMT -0500)
Terre Haute International-Hulman

Weather History for KHUF - October, 2019

Change the Weather History Date:

Thursday, October 17, 2019

  Actual Average Record
Temperature  
Mean Temperature 48 °F 54 °F  
Max Temperature 59 °F 65 °F 85 °F (1963)
Min Temperature 37 °F 42 °F 25 °F (1991)
Degree Days  
Heating Degree Days 17 12  
Month to date heating degree days 131 157  
Since 1 July heating degree days 133 235  
Cooling Degree Days 0 0  
Month to date cooling degree days 34 12  
Year to date cooling degree days 1298 990  
Moisture  
Dew Point 37 °F    
Average Humidity 68    
Maximum Humidity 92    
Minimum Humidity 43    
Precipitation  
Precipitation 0.00 in 0.12 in 1.70 in (1967)
Month to date precipitation 1.92 1.95  
Year to date precipitation 39.85 36.65  
Sea Level Pressure  
Sea Level Pressure 30.05 in    
Wind  
Wind Speed 4 mph (WNW)    
Max Wind Speed 12 mph    
Max Gust Speed 17 mph    
Visibility 10 miles    
Events      
T = Trace of Precipitation, MM = Missing Value Source: NWS Daily Summary

Daily Weather History Graph

Daily Weather History Graph

Search for Another Location

Airport or City:

Astronomy

Oct. 17, 2019 Rise Set
Actual Time 8:01 AM EDT 7:07 PM EDT
Civil Twilight 7:33 AM EDT 7:34 PM EDT
Nautical Twilight 7:02 AM EDT 8:05 PM EDT
Astronomical Twilight 6:31 AM EDT 8:36 PM EDT
Moon 9:40 PM EDT (10/17) 11:31 AM EDT (10/17)
Length of Visible Light 12h 00m
Length of Day
11h 06m
Waning Gibbous, 87% of the Moon is Illuminated
Oct 17
Waning Gibbous
Oct 21
Last Quarter
Oct 27
New
Nov 4
First Quarter
Nov 12
Full

Hourly Weather History & Observations

Time (EDT) Temp. Windchill Dew Point Humidity Pressure Visibility Wind Dir Wind Speed Gust Speed Precip Events Conditions
12:53 AM 44.1 °F 41.5 °F 36.0 °F 73% 30.05 in 10.0 mi WNW 4.6 mph - N/A   Clear
1:53 AM 43.0 °F 39.5 °F 37.0 °F 80% 30.05 in 10.0 mi WNW 5.8 mph - N/A   Clear
2:53 AM 43.0 °F 40.3 °F 36.0 °F 76% 30.04 in 10.0 mi NW 4.6 mph - N/A   Clear
3:53 AM 42.1 °F 40.2 °F 36.0 °F 79% 30.05 in 10.0 mi NW 3.5 mph - N/A   Clear
4:53 AM 39.9 °F 36.7 °F 36.0 °F 86% 30.04 in 10.0 mi WNW 4.6 mph - N/A   Clear
5:53 AM 39.9 °F 37.8 °F 36.0 °F 86% 30.04 in 10.0 mi NW 3.5 mph - N/A   Clear
6:53 AM 41.0 °F 39.0 °F 37.0 °F 86% 30.04 in 10.0 mi NW 3.5 mph - N/A   Clear
7:53 AM 41.0 °F 39.0 °F 37.0 °F 86% 30.05 in 10.0 mi WNW 3.5 mph - N/A   Clear
8:53 AM 42.1 °F 40.2 °F 37.0 °F 82% 30.06 in 10.0 mi West 3.5 mph - N/A   Clear
9:53 AM 45.0 °F 43.5 °F 37.0 °F 74% 30.08 in 10.0 mi West 3.5 mph - N/A   Clear
10:53 AM 48.9 °F - 37.0 °F 64% 30.08 in 10.0 mi Calm Calm - N/A   Clear
11:53 AM 53.1 °F - 37.0 °F 55% 30.09 in 10.0 mi Variable 3.5 mph - N/A   Partly Cloudy
12:53 PM 55.0 °F - 37.0 °F 51% 30.07 in 10.0 mi NW 5.8 mph - N/A   Partly Cloudy
1:53 PM 55.9 °F - 37.0 °F 49% 30.05 in 10.0 mi West 8.1 mph - N/A   Clear
2:53 PM 57.0 °F - 37.0 °F 47% 30.04 in 10.0 mi WNW 8.1 mph - N/A   Clear
3:53 PM 57.9 °F - 37.0 °F 46% 30.02 in 10.0 mi West 8.1 mph - N/A   Clear
4:53 PM 57.9 °F - 36.0 °F 44% 30.02 in 10.0 mi NW 9.2 mph - N/A   Clear
5:53 PM 57.9 °F - 36.0 °F 44% 30.01 in 10.0 mi West 6.9 mph - N/A   Clear
6:53 PM 55.0 °F - 37.0 °F 51% 30.02 in 10.0 mi WNW 3.5 mph - N/A   Clear
7:53 PM 48.0 °F - 39.0 °F 71% 30.03 in 10.0 mi Calm Calm - N/A   Clear
8:53 PM 43.0 °F - 39.0 °F 86% 30.03 in 10.0 mi Calm Calm - N/A   Clear
9:53 PM 41.0 °F - 37.9 °F 89% 30.04 in 10.0 mi Calm Calm - N/A   Clear
10:53 PM 39.9 °F - 37.0 °F 89% 30.05 in 10.0 mi Calm Calm - N/A   Clear
11:53 PM 37.0 °F - 36.0 °F 96% 30.06 in 10.0 mi Calm Calm - N/A   Clear